Regional Weather Roundup
Issued by NWS Goodland, KS

Home | Current Version | Previous Version | Graphics & Text | Print | Product List | Glossary On
Versions: 1 2 3 4 5 6 7 8 9 10 11 12 13 14 15 16 17 18 19 20 21 22 23 24 25 26 27 28 29 30 31 32 33 34 35 36 37 38 39 40 41 42 43 44 45 46 47 48 49 50
000
ASUS43 KGLD 252208
RWRGLD

GOODLAND FORECAST AREA HOURLY WEATHER ROUNDUP
NATIONAL WEATHER SERVICE GOODLAND KS
400 PM MDT THU MAY 25 2017

...OFFICIAL OBSERVATIONS...

CITY           SKY/WX    TMP DP  RH WIND       PRES   REMARKS
GOODLAND KS    CLOUDY    75  51  43 NE16      29.46F
HILL CITY KS   SUNNY     86  58  38 S13       29.46S
IMPERIAL NEB   CLOUDY    64  56  75 NE5       29.56F
MCCOOK NEB     SUNNY     79  53  40 NE8       29.51R
AKRON CO       TSTM      55  49  80 E12       29.62F
BURLINGTON CO  CLOUDY    76  51  41 N18G26    29.54R
LIMON CO       CLOUDY    71  31  22 NW13G39   29.59R
$$

...UNOFFICIAL OBSERVATIONS...

CITY           SKY/WX    TMP DP  RH WIND       PRES   REMARKS
LENORA KS        N/A     72  32  23 MISG        N/A
NORTON KS      SUNNY     79  54  41 E5        29.48R
SHARON SPRINGS   N/A     81  56  41 E9          N/A
TRENTON NEB      N/A     73  32  22 N8          N/A
KIT CARSON CO    N/A     87  41  19 MISG        N/A
YUMA CO        CLOUDY    57  50  77 NE9G17    29.61S
$$




USA.gov is the U.S. government's official web portal to all federal, state and local government web resources and services.